Orbital Elements at Epoch 2459200.5 (2020-Dec-17.0) TDB
Reference: JPL 17 (heliocentric ecliptic J2000)
Element | Value | Uncertainty (1-sigma) | Units |
e | .05614024835648283 | 5.7159e-08 | |
a | 2.397697233123466 | 1.4115e-08 | au |
q | 2.263089914972263 | 1.3549e-07 | au |
i | 2.689099703428798 | 4.3353e-06 | deg |
node | 116.2846779783848 | 0.00012729 | deg |
peri | 122.2765023854927 | 0.00013283 | deg |
M | 182.7894046179699 | 4.1058e-05 | deg |
tp | 2459868.039738046895 (2022-Oct-15.53973805) | 0.0001573 | TDB |
period | 1356.094454616629 3.71 | 1.1975e-05 3.279e-08 | d yr |
n | .2654682339968515 | 2.3442e-09 | deg/d |
Q | 2.532304551274669 | 1.4907e-08 | au |
|
| | Orbit Determination Parameters
Additional Information
|